Year,Month,Day,Hour,Minute,Value (Times are PST for insolation in W/m^2)
2014,02,28,00,00,0.00
2014,02,28,00,01,0.00
2014,02,28,00,02,0.00
2014,02,28,00,03,0.00
2014,02,28,00,04,0.00
2014,02,28,00,05,0.00
2014,02,28,00,06,0.00
2014,02,28,00,07,0.00
2014,02,28,00,08,0.00
2014,02,28,00,09,0.00
2014,02,28,00,10,0.00
2014,02,28,00,11,0.00
2014,02,28,00,12,0.00
2014,02,28,00,13,0.00
2014,02,28,00,14,0.00
2014,02,28,00,15,0.00
2014,02,28,00,16,0.00
2014,02,28,00,17,0.00
2014,02,28,00,18,0.00
2014,02,28,00,19,0.00
2014,02,28,00,20,0.00
2014,02,28,00,21,0.00
2014,02,28,00,22,0.00
2014,02,28,00,23,0.00
2014,02,28,00,24,0.00
2014,02,28,00,25,0.00
2014,02,28,00,26,0.00
2014,02,28,00,27,0.00
2014,02,28,00,28,0.00
2014,02,28,00,29,0.00
2014,02,28,00,30,0.00
2014,02,28,00,31,0.00
2014,02,28,00,32,0.00
2014,02,28,00,33,0.00
2014,02,28,00,34,0.00
2014,02,28,00,35,0.00
2014,02,28,00,36,0.00
2014,02,28,00,37,0.00
2014,02,28,00,38,0.00
2014,02,28,00,39,0.00
2014,02,28,00,40,0.00
2014,02,28,00,41,0.00
2014,02,28,00,42,0.00
2014,02,28,00,43,0.00
2014,02,28,00,44,0.00
2014,02,28,00,45,0.00
2014,02,28,00,46,0.00
2014,02,28,00,47,0.00
2014,02,28,00,48,0.00
2014,02,28,00,49,0.00
2014,02,28,00,50,0.00
2014,02,28,00,51,0.00
2014,02,28,00,52,0.00
2014,02,28,00,53,0.00
2014,02,28,00,54,0.00
2014,02,28,00,55,0.00
2014,02,28,00,56,0.00
2014,02,28,00,57,0.00
2014,02,28,00,58,0.00
2014,02,28,00,59,0.00
2014,02,28,01,00,0.00
2014,02,28,01,01,0.00
2014,02,28,01,02,0.00
2014,02,28,01,03,0.00
2014,02,28,01,04,0.00
2014,02,28,01,05,0.00
2014,02,28,01,06,0.00
2014,02,28,01,07,0.00
2014,02,28,01,08,0.00
2014,02,28,01,09,0.00
2014,02,28,01,10,0.00
2014,02,28,01,11,0.00
2014,02,28,01,12,0.00
2014,02,28,01,13,0.00
2014,02,28,01,14,0.00
2014,02,28,01,15,0.00
2014,02,28,01,16,0.00
2014,02,28,01,17,0.00
2014,02,28,01,18,0.00
2014,02,28,01,19,0.00
2014,02,28,01,20,0.00
2014,02,28,01,21,0.00
2014,02,28,01,22,0.00
2014,02,28,01,23,0.00
2014,02,28,01,24,0.00
2014,02,28,01,25,0.00
2014,02,28,01,26,0.00
2014,02,28,01,27,0.00
2014,02,28,01,28,0.00
2014,02,28,01,29,0.00
2014,02,28,01,30,0.00
2014,02,28,01,31,0.00
2014,02,28,01,32,0.00
2014,02,28,01,33,0.00
2014,02,28,01,34,0.00
2014,02,28,01,35,0.00
2014,02,28,01,36,0.00
2014,02,28,01,37,0.00
2014,02,28,01,38,0.00
2014,02,28,01,39,0.00
2014,02,28,01,40,0.00
2014,02,28,01,41,0.00
2014,02,28,01,42,0.00
2014,02,28,01,43,0.00
2014,02,28,01,44,0.00
2014,02,28,01,45,0.00
2014,02,28,01,46,0.00
2014,02,28,01,47,0.00
2014,02,28,01,48,0.00
2014,02,28,01,49,0.00
2014,02,28,01,50,0.00
2014,02,28,01,51,0.00
2014,02,28,01,52,0.00
2014,02,28,01,53,0.00
2014,02,28,01,54,0.00
2014,02,28,01,55,0.00
2014,02,28,01,56,0.00
2014,02,28,01,57,0.00
2014,02,28,01,58,0.00
2014,02,28,01,59,0.00
2014,02,28,02,00,0.00
2014,02,28,02,01,0.00
2014,02,28,02,02,0.00
2014,02,28,02,03,0.00
2014,02,28,02,04,0.00
2014,02,28,02,05,0.00
2014,02,28,02,06,0.00
2014,02,28,02,07,0.00
2014,02,28,02,08,0.00
2014,02,28,02,09,0.00
2014,02,28,02,10,0.00
2014,02,28,02,11,0.00
2014,02,28,02,12,0.00
2014,02,28,02,13,0.00
2014,02,28,02,14,0.00
2014,02,28,02,15,0.00
2014,02,28,02,16,0.00
2014,02,28,02,17,0.00
2014,02,28,02,18,0.00
2014,02,28,02,19,0.00
2014,02,28,02,20,0.00
2014,02,28,02,21,0.00
2014,02,28,02,22,0.00
2014,02,28,02,23,0.00
2014,02,28,02,24,0.00
2014,02,28,02,25,0.00
2014,02,28,02,26,0.00
2014,02,28,02,27,0.00
2014,02,28,02,28,0.00
2014,02,28,02,29,0.00
2014,02,28,02,30,0.00
2014,02,28,02,31,0.00
2014,02,28,02,32,0.00
2014,02,28,02,33,0.00
2014,02,28,02,34,0.00
2014,02,28,02,35,0.00
2014,02,28,02,36,0.00
2014,02,28,02,37,0.00
2014,02,28,02,38,0.00
2014,02,28,02,39,0.00
2014,02,28,02,40,0.00
2014,02,28,02,41,0.00
2014,02,28,02,42,0.00
2014,02,28,02,43,0.00
2014,02,28,02,44,0.00
2014,02,28,02,45,0.00
2014,02,28,02,46,0.00
2014,02,28,02,47,0.00
2014,02,28,02,48,0.00
2014,02,28,02,49,0.00
2014,02,28,02,50,0.00
2014,02,28,02,51,0.00
2014,02,28,02,52,0.00
2014,02,28,02,53,0.00
2014,02,28,02,54,0.00
2014,02,28,02,55,0.00
2014,02,28,02,56,0.00
2014,02,28,02,57,0.00
2014,02,28,02,58,0.00
2014,02,28,02,59,0.00
2014,02,28,03,00,0.00
2014,02,28,03,01,0.00
2014,02,28,03,02,0.00
2014,02,28,03,06,0.00
2014,02,28,03,07,0.00
2014,02,28,03,08,0.00
2014,02,28,03,09,0.00
2014,02,28,03,10,0.00
2014,02,28,03,11,0.00
2014,02,28,03,12,0.00
2014,02,28,03,13,0.00
2014,02,28,03,14,0.00
2014,02,28,03,15,0.00
2014,02,28,03,16,0.00
2014,02,28,03,17,0.00
2014,02,28,03,18,0.00
2014,02,28,03,19,0.00
2014,02,28,03,20,0.00
2014,02,28,03,21,0.00
2014,02,28,03,22,0.00
2014,02,28,03,23,0.00
2014,02,28,03,24,0.00
2014,02,28,03,25,0.00
2014,02,28,03,26,0.00
2014,02,28,03,27,0.00
2014,02,28,03,28,0.00
2014,02,28,03,29,0.00
2014,02,28,03,30,0.00
2014,02,28,03,31,0.00
2014,02,28,03,32,0.00
2014,02,28,03,33,0.00
2014,02,28,03,34,0.00
2014,02,28,03,35,0.00
2014,02,28,03,36,0.00
2014,02,28,03,37,0.00
2014,02,28,03,38,0.00
2014,02,28,03,39,0.00
2014,02,28,03,40,0.00
2014,02,28,03,41,0.00
2014,02,28,03,42,0.00
2014,02,28,03,43,0.00
2014,02,28,03,44,0.00
2014,02,28,03,45,0.00
2014,02,28,03,46,0.00
2014,02,28,03,47,0.00
2014,02,28,03,48,0.00
2014,02,28,03,49,0.00
2014,02,28,03,50,0.00
2014,02,28,03,51,0.00
2014,02,28,03,52,0.00
2014,02,28,03,53,0.00
2014,02,28,03,54,0.00
2014,02,28,03,55,0.00
2014,02,28,03,56,0.00
2014,02,28,03,57,0.00
2014,02,28,03,58,0.00
2014,02,28,03,59,0.00
2014,02,28,04,00,0.00
2014,02,28,04,01,0.00
2014,02,28,04,02,0.00
2014,02,28,04,03,0.00
2014,02,28,04,04,0.00
2014,02,28,04,05,0.00
2014,02,28,04,06,0.00
2014,02,28,04,07,0.00
2014,02,28,04,08,0.00
2014,02,28,04,09,0.00
2014,02,28,04,10,0.00
2014,02,28,04,11,0.00
2014,02,28,04,12,0.00
2014,02,28,04,13,0.00
2014,02,28,04,14,0.00
2014,02,28,04,15,0.00
2014,02,28,04,16,0.00
2014,02,28,04,17,0.00
2014,02,28,04,18,0.00
2014,02,28,04,19,0.00
2014,02,28,04,20,0.00
2014,02,28,04,21,0.00
2014,02,28,04,22,0.00
2014,02,28,04,23,0.00
2014,02,28,04,24,0.00
2014,02,28,04,25,0.00
2014,02,28,04,26,0.00
2014,02,28,04,27,0.00
2014,02,28,04,28,0.00
2014,02,28,04,29,0.00
2014,02,28,04,30,0.00
2014,02,28,04,31,0.00
2014,02,28,04,32,0.00
2014,02,28,04,33,0.00
2014,02,28,04,34,0.00
2014,02,28,04,35,0.00
2014,02,28,04,36,0.00
2014,02,28,04,37,0.00
2014,02,28,04,38,0.00
2014,02,28,04,39,0.00
2014,02,28,04,40,0.00
2014,02,28,04,41,0.00
2014,02,28,04,42,0.00
2014,02,28,04,43,0.00
2014,02,28,04,44,0.00
2014,02,28,04,45,0.00
2014,02,28,04,46,0.00
2014,02,28,04,47,0.00
2014,02,28,04,48,0.00
2014,02,28,04,49,0.00
2014,02,28,04,50,0.00
2014,02,28,04,51,0.00
2014,02,28,04,52,0.00
2014,02,28,04,53,0.00
2014,02,28,04,54,0.00
2014,02,28,04,55,0.00
2014,02,28,04,56,0.00
2014,02,28,04,57,0.00
2014,02,28,04,58,0.00
2014,02,28,04,59,0.00
2014,02,28,05,00,0.00
2014,02,28,05,01,0.00
2014,02,28,05,02,0.00
2014,02,28,05,03,0.00
2014,02,28,05,04,0.00
2014,02,28,05,05,0.00
2014,02,28,05,06,0.00
2014,02,28,05,07,0.00
2014,02,28,05,08,0.00
2014,02,28,05,09,0.00
2014,02,28,05,10,0.00
2014,02,28,05,11,0.00
2014,02,28,05,12,0.00
2014,02,28,05,13,0.00
2014,02,28,05,14,0.00
2014,02,28,05,15,0.00
2014,02,28,05,16,0.00
2014,02,28,05,17,0.00
2014,02,28,05,18,0.00
2014,02,28,05,19,0.00
2014,02,28,05,20,0.00
2014,02,28,05,21,0.00
2014,02,28,05,22,0.00
2014,02,28,05,23,0.00
2014,02,28,05,24,0.00
2014,02,28,05,25,0.00
2014,02,28,05,26,0.00
2014,02,28,05,27,0.00
2014,02,28,05,28,0.00
2014,02,28,05,29,0.00
2014,02,28,05,30,0.00
2014,02,28,05,31,0.00
2014,02,28,05,32,0.00
2014,02,28,05,33,0.00
2014,02,28,05,34,0.00
2014,02,28,05,35,0.00
2014,02,28,05,36,0.00
2014,02,28,05,37,0.00
2014,02,28,05,38,0.00
2014,02,28,05,39,0.00
2014,02,28,05,40,0.00
2014,02,28,05,41,0.00
2014,02,28,05,42,0.00
2014,02,28,05,43,0.00
2014,02,28,05,44,0.00
2014,02,28,05,45,0.00
2014,02,28,05,46,0.00
2014,02,28,05,47,0.00
2014,02,28,05,48,0.00
2014,02,28,05,49,0.00
2014,02,28,05,50,0.00
2014,02,28,05,51,0.00
2014,02,28,05,52,0.00
2014,02,28,05,53,0.00
2014,02,28,05,54,0.00
2014,02,28,05,55,0.00
2014,02,28,05,56,0.00
2014,02,28,05,57,0.00
2014,02,28,05,58,0.00
2014,02,28,05,59,0.00
2014,02,28,06,00,0.00
2014,02,28,06,01,0.00
2014,02,28,06,02,0.00
2014,02,28,06,03,0.00
2014,02,28,06,04,0.00
2014,02,28,06,05,0.00
2014,02,28,06,06,0.00
2014,02,28,06,07,0.00
2014,02,28,06,08,0.00
2014,02,28,06,09,0.00
2014,02,28,06,10,0.00
2014,02,28,06,11,0.00
2014,02,28,06,12,0.00
2014,02,28,06,13,0.00
2014,02,28,06,14,0.00
2014,02,28,06,15,0.00
2014,02,28,06,16,0.00
2014,02,28,06,17,0.00
2014,02,28,06,18,0.00
2014,02,28,06,19,0.00
2014,02,28,06,20,0.00
2014,02,28,06,21,0.00
2014,02,28,06,22,0.00
2014,02,28,06,23,0.00
2014,02,28,06,24,0.00
2014,02,28,06,25,0.00
2014,02,28,06,26,0.00
2014,02,28,06,27,0.00
2014,02,28,06,28,0.00
2014,02,28,06,29,0.00
2014,02,28,06,30,0.00
2014,02,28,06,31,0.00
2014,02,28,06,32,0.00
2014,02,28,06,33,0.00
2014,02,28,06,34,0.00
2014,02,28,06,35,0.00
2014,02,28,06,36,0.00
2014,02,28,06,37,0.00
2014,02,28,06,38,0.00
2014,02,28,06,39,0.00
2014,02,28,06,40,0.00
2014,02,28,06,41,0.00
2014,02,28,06,42,0.00
2014,02,28,06,43,0.00
2014,02,28,06,44,0.00
2014,02,28,06,45,0.00
2014,02,28,06,46,0.00
2014,02,28,06,47,0.00
2014,02,28,06,48,0.00
2014,02,28,06,49,0.00
2014,02,28,06,50,0.00
2014,02,28,06,51,0.00
2014,02,28,06,52,0.00
2014,02,28,06,53,0.00
2014,02,28,06,54,0.00
2014,02,28,06,55,0.00
2014,02,28,06,56,0.00
2014,02,28,06,57,0.00
2014,02,28,06,58,0.00
2014,02,28,06,59,0.00
2014,02,28,07,00,0.00
2014,02,28,07,01,0.00
2014,02,28,07,02,0.00
2014,02,28,07,03,0.00
2014,02,28,07,04,3.20
2014,02,28,07,05,5.00
2014,02,28,07,06,5.00
2014,02,28,07,07,6.80
2014,02,28,07,08,7.10
2014,02,28,07,09,9.30
2014,02,28,07,10,11.00
2014,02,28,07,11,11.40
2014,02,28,07,12,12.00
2014,02,28,07,13,12.90
2014,02,28,07,14,14.00
2014,02,28,07,15,14.00
2014,02,28,07,16,14.00
2014,02,28,07,17,14.00
2014,02,28,07,18,15.80
2014,02,28,07,19,16.10
2014,02,28,07,20,18.00
2014,02,28,07,21,18.20
2014,02,28,07,22,19.00
2014,02,28,07,23,20.60
2014,02,28,07,24,23.90
2014,02,28,07,25,25.60
2014,02,28,07,26,28.50
2014,02,28,07,27,31.40
2014,02,28,07,28,36.00
2014,02,28,07,29,39.70
2014,02,28,07,30,42.00
2014,02,28,07,31,42.30
2014,02,28,07,32,43.50
2014,02,28,07,33,42.00
2014,02,28,07,34,42.00
2014,02,28,07,35,42.90
2014,02,28,07,36,46.80
2014,02,28,07,37,49.00
2014,02,28,07,38,51.90
2014,02,28,07,39,51.40
2014,02,28,07,40,49.20
2014,02,28,07,41,53.70
2014,02,28,07,42,52.40
2014,02,28,07,43,59.50
2014,02,28,07,44,58.60
2014,02,28,07,45,57.60
2014,02,28,07,46,55.00
2014,02,28,07,47,54.30
2014,02,28,07,48,49.20
2014,02,28,07,49,47.00
2014,02,28,07,50,44.60
2014,02,28,07,51,42.20
2014,02,28,07,52,46.10
2014,02,28,07,53,47.60
2014,02,28,07,54,51.50
2014,02,28,07,55,54.80
2014,02,28,07,56,56.20
2014,02,28,07,57,57.00
2014,02,28,07,58,59.80
2014,02,28,07,59,51.40
2014,02,28,08,00,51.90
2014,02,28,08,01,53.20
2014,02,28,08,02,53.90
2014,02,28,08,03,53.20
2014,02,28,08,04,57.30
2014,02,28,08,05,63.80
2014,02,28,08,06,68.50
2014,02,28,08,07,72.00
2014,02,28,08,08,68.80
2014,02,28,08,09,63.90
2014,02,28,08,10,73.40
2014,02,28,08,11,73.80
2014,02,28,08,12,73.70
2014,02,28,08,13,84.80
2014,02,28,08,14,94.70
2014,02,28,08,15,89.00
2014,02,28,08,16,94.80
2014,02,28,08,17,116.00
2014,02,28,08,18,96.00
2014,02,28,08,19,103.60
2014,02,28,08,20,114.00
2014,02,28,08,21,109.20
2014,02,28,08,22,101.40
2014,02,28,08,23,104.40
2014,02,28,08,24,119.50
2014,02,28,08,25,129.20
2014,02,28,08,26,116.30
2014,02,28,08,27,124.80
2014,02,28,08,28,134.90
2014,02,28,08,29,151.80
2014,02,28,08,30,124.50
2014,02,28,08,31,141.20
2014,02,28,08,32,149.40
2014,02,28,08,33,148.20
2014,02,28,08,34,146.00
2014,02,28,08,35,150.50
2014,02,28,08,36,156.00
2014,02,28,08,37,169.50
2014,02,28,08,38,150.80
2014,02,28,08,39,178.90
2014,02,28,08,40,173.40
2014,02,28,08,41,171.50
2014,02,28,08,42,172.50
2014,02,28,08,43,142.20
2014,02,28,08,44,185.00
2014,02,28,08,45,187.40
2014,02,28,08,46,197.40
2014,02,28,08,47,174.00
2014,02,28,08,48,174.80
2014,02,28,08,49,172.80
2014,02,28,08,50,158.60
2014,02,28,08,51,190.90
2014,02,28,08,52,220.50
2014,02,28,08,53,216.60
2014,02,28,08,54,218.10
2014,02,28,08,55,221.00
2014,02,28,08,56,213.10
2014,02,28,08,57,154.30
2014,02,28,08,58,223.70
2014,02,28,08,59,232.30
2014,02,28,09,00,225.20
2014,02,28,09,01,234.90
2014,02,28,09,02,235.80
2014,02,28,09,03,235.00
2014,02,28,09,04,233.80
2014,02,28,09,05,232.00
2014,02,28,09,06,234.80
2014,02,28,09,07,236.80
2014,02,28,09,08,238.80
2014,02,28,09,09,241.00
2014,02,28,09,10,242.70
2014,02,28,09,11,241.60
2014,02,28,09,12,244.60
2014,02,28,09,13,245.20
2014,02,28,09,14,243.60
2014,02,28,09,15,247.20
2014,02,28,09,16,250.60
2014,02,28,09,17,253.90
2014,02,28,09,18,257.40
2014,02,28,09,19,259.80
2014,02,28,09,20,261.90
2014,02,28,09,21,262.50
2014,02,28,09,22,266.30
2014,02,28,09,23,269.20
2014,02,28,09,24,268.40
2014,02,28,09,25,270.70
2014,02,28,09,26,273.60
2014,02,28,09,27,279.00
2014,02,28,09,28,280.40
2014,02,28,09,29,279.40
2014,02,28,09,30,287.10
2014,02,28,09,31,287.20
2014,02,28,09,32,290.80
2014,02,28,09,33,294.80
2014,02,28,09,34,294.30
2014,02,28,09,35,295.80
2014,02,28,09,36,298.00
2014,02,28,09,37,301.80
2014,02,28,09,38,305.20
2014,02,28,09,39,307.40
2014,02,28,09,40,310.40
2014,02,28,09,41,312.80
2014,02,28,09,42,313.10
2014,02,28,09,43,316.60
2014,02,28,09,44,322.60
2014,02,28,09,45,324.40
2014,02,28,09,46,325.80
2014,02,28,09,47,330.00
2014,02,28,09,48,331.10
2014,02,28,09,49,338.60
2014,02,28,09,50,341.60
2014,02,28,09,51,344.20
2014,02,28,09,52,352.20
2014,02,28,09,53,348.50
2014,02,28,09,54,352.50
2014,02,28,09,55,355.00
2014,02,28,09,56,356.30
2014,02,28,09,57,359.40
2014,02,28,09,58,360.90
2014,02,28,09,59,364.20
2014,02,28,10,00,366.00
2014,02,28,10,01,368.10
2014,02,28,10,02,370.60
2014,02,28,10,03,372.70
2014,02,28,10,04,374.00
2014,02,28,10,05,374.30
2014,02,28,10,06,376.80
2014,02,28,10,07,380.90
2014,02,28,10,08,383.00
2014,02,28,10,09,383.90
2014,02,28,10,10,386.60
2014,02,28,10,11,389.20
2014,02,28,10,12,391.50
2014,02,28,10,13,395.40
2014,02,28,10,14,396.90
2014,02,28,10,15,399.00
2014,02,28,10,16,401.30
2014,02,28,10,17,403.20
2014,02,28,10,18,404.60
2014,02,28,10,19,406.00
2014,02,28,10,20,407.90
2014,02,28,10,21,410.50
2014,02,28,10,22,413.40
2014,02,28,10,23,416.40
2014,02,28,10,24,417.00
2014,02,28,10,25,419.70
2014,02,28,10,26,422.10
2014,02,28,10,27,424.10
2014,02,28,10,28,425.40
2014,02,28,10,29,427.60
2014,02,28,10,30,429.80
2014,02,28,10,31,431.50
2014,02,28,10,32,433.10
2014,02,28,10,33,435.20
2014,02,28,10,34,436.00
2014,02,28,10,35,437.60
2014,02,28,10,36,438.90
2014,02,28,10,37,439.10
2014,02,28,10,38,441.20
2014,02,28,10,39,443.00
2014,02,28,10,40,443.90
2014,02,28,10,41,446.80
2014,02,28,10,42,448.90
2014,02,28,10,43,451.10
2014,02,28,10,44,453.30
2014,02,28,10,45,454.00
2014,02,28,10,46,458.00
2014,02,28,10,47,460.80
2014,02,28,10,48,463.90
2014,02,28,10,49,464.30
2014,02,28,10,50,467.10
2014,02,28,10,51,470.40
2014,02,28,10,52,471.40
2014,02,28,10,53,475.50
2014,02,28,10,54,478.20
2014,02,28,10,55,480.00
2014,02,28,10,56,481.40
2014,02,28,10,57,482.80
2014,02,28,10,58,486.40
2014,02,28,10,59,483.80
2014,02,28,11,00,492.80
2014,02,28,11,01,472.00
2014,02,28,11,02,448.50
2014,02,28,11,03,491.00
2014,02,28,11,04,497.00
2014,02,28,11,05,500.50
2014,02,28,11,06,503.60
2014,02,28,11,07,508.40
2014,02,28,11,08,511.60
2014,02,28,11,09,516.20
2014,02,28,11,10,515.00
2014,02,28,11,11,512.50
2014,02,28,11,12,510.00
2014,02,28,11,13,510.00
2014,02,28,11,14,511.20
2014,02,28,11,15,517.00
2014,02,28,11,16,487.40
2014,02,28,11,17,459.00
2014,02,28,11,18,459.00
2014,02,28,11,19,509.20
2014,02,28,11,20,522.60
2014,02,28,11,21,522.00
2014,02,28,11,22,521.50
2014,02,28,11,23,519.00
2014,02,28,11,24,518.40
2014,02,28,11,25,517.00
2014,02,28,11,26,518.50
2014,02,28,11,27,520.00
2014,02,28,11,28,520.00
2014,02,28,11,29,522.80
2014,02,28,11,30,524.00
2014,02,28,11,31,524.00
2014,02,28,11,32,524.20
2014,02,28,11,33,526.80
2014,02,28,11,34,526.20
2014,02,28,11,35,527.60
2014,02,28,11,36,529.00
2014,02,28,11,37,529.90
2014,02,28,11,38,531.00
2014,02,28,11,39,532.20
2014,02,28,11,40,533.70
2014,02,28,11,41,534.00
2014,02,28,11,42,535.70
2014,02,28,11,43,536.00
2014,02,28,11,44,536.30
2014,02,28,11,45,538.50
2014,02,28,11,46,540.00
2014,02,28,11,47,540.00
2014,02,28,11,48,541.30
2014,02,28,11,49,543.00
2014,02,28,11,50,541.70
2014,02,28,11,51,543.80
2014,02,28,11,52,545.00
2014,02,28,11,53,545.00
2014,02,28,11,54,545.10
2014,02,28,11,55,547.10
2014,02,28,11,56,547.80
2014,02,28,11,57,547.30
2014,02,28,11,58,548.00
2014,02,28,11,59,549.00
2014,02,28,12,00,551.10
2014,02,28,12,01,552.00
2014,02,28,12,02,553.40
2014,02,28,12,03,554.80
2014,02,28,12,04,555.00
2014,02,28,12,05,557.00
2014,02,28,12,06,559.00
2014,02,28,12,07,559.00
2014,02,28,12,08,559.60
2014,02,28,12,09,561.00
2014,02,28,12,10,561.00
2014,02,28,12,11,562.70
2014,02,28,12,12,565.20
2014,02,28,12,13,566.00
2014,02,28,12,14,569.20
2014,02,28,12,15,570.90
2014,02,28,12,16,571.30
2014,02,28,12,17,577.10
2014,02,28,12,18,579.20
2014,02,28,12,19,584.30
2014,02,28,12,20,585.70
2014,02,28,12,21,588.80
2014,02,28,12,22,591.50
2014,02,28,12,23,595.90
2014,02,28,12,24,600.10
2014,02,28,12,25,606.60
2014,02,28,12,26,612.50
2014,02,28,12,27,622.20
2014,02,28,12,28,636.20
2014,02,28,12,29,645.30
2014,02,28,12,30,657.00
2014,02,28,12,31,669.20
2014,02,28,12,32,682.40
2014,02,28,12,33,698.30
2014,02,28,12,34,715.20
2014,02,28,12,35,731.10
2014,02,28,12,36,744.60
2014,02,28,12,37,760.60
2014,02,28,12,38,770.10
2014,02,28,12,39,779.90
2014,02,28,12,40,790.90
2014,02,28,12,41,803.00
2014,02,28,12,42,773.00
2014,02,28,12,43,728.00
2014,02,28,12,44,683.50
2014,02,28,12,45,647.00
2014,02,28,12,46,647.00
2014,02,28,12,47,647.00
2014,02,28,12,48,531.80
2014,02,28,12,49,468.60
2014,02,28,12,50,519.20
2014,02,28,12,51,821.00
2014,02,28,12,52,737.00
2014,02,28,12,53,541.00
2014,02,28,12,54,477.10
2014,02,28,12,55,408.90
2014,02,28,12,56,430.20
2014,02,28,12,57,439.00
2014,02,28,12,58,439.00
2014,02,28,12,59,440.80
2014,02,28,13,00,456.90
2014,02,28,13,01,759.00
2014,02,28,13,02,759.00
2014,02,28,13,03,652.20
2014,02,28,13,04,403.00
2014,02,28,13,05,403.00
2014,02,28,13,06,440.40
2014,02,28,13,07,471.00
2014,02,28,13,08,555.00
2014,02,28,13,09,591.00
2014,02,28,13,10,499.20
2014,02,28,13,11,483.40
2014,02,28,13,12,385.30
2014,02,28,13,13,438.00
2014,02,28,13,14,438.00
2014,02,28,13,15,422.40
2014,02,28,13,16,372.90
2014,02,28,13,17,338.20
2014,02,28,13,18,331.80
2014,02,28,13,19,329.70
2014,02,28,13,20,320.40
2014,02,28,13,21,319.80
2014,02,28,13,22,312.50
2014,02,28,13,23,292.90
2014,02,28,13,24,288.40
2014,02,28,13,25,308.20
2014,02,28,13,26,289.30
2014,02,28,13,27,292.00
2014,02,28,13,28,297.00
2014,02,28,13,29,300.20
2014,02,28,13,30,333.70
2014,02,28,13,31,312.80
2014,02,28,13,32,313.00
2014,02,28,13,33,286.30
2014,02,28,13,34,281.90
2014,02,28,13,35,291.40
2014,02,28,13,36,309.00
2014,02,28,13,37,377.90
2014,02,28,13,38,496.00
2014,02,28,13,39,393.10
2014,02,28,13,40,309.00
2014,02,28,13,41,309.00
2014,02,28,13,42,308.20
2014,02,28,13,43,279.10
2014,02,28,13,44,257.50
2014,02,28,13,45,251.70
2014,02,28,13,46,266.60
2014,02,28,13,47,290.80
2014,02,28,13,48,261.10
2014,02,28,13,49,245.30
2014,02,28,13,50,237.80
2014,02,28,13,51,241.20
2014,02,28,13,52,246.80
2014,02,28,13,53,256.00
2014,02,28,13,54,259.80
2014,02,28,13,55,270.40
2014,02,28,13,56,329.60
2014,02,28,13,57,262.20
2014,02,28,13,58,249.50
2014,02,28,13,59,249.10
2014,02,28,14,00,285.10
2014,02,28,14,01,294.00
2014,02,28,14,02,271.00
2014,02,28,14,03,271.00
2014,02,28,14,04,271.00
2014,02,28,14,05,600.80
2014,02,28,14,06,636.30
2014,02,28,14,07,617.60
2014,02,28,14,08,602.20
2014,02,28,14,09,587.80
2014,02,28,14,10,575.20
2014,02,28,14,11,570.00
2014,02,28,14,12,570.00
2014,02,28,14,13,324.90
2014,02,28,14,14,174.00
2014,02,28,14,15,305.20
2014,02,28,14,16,338.00
2014,02,28,14,17,537.40
2014,02,28,14,18,544.00
2014,02,28,14,19,537.00
2014,02,28,14,20,530.80
2014,02,28,14,21,523.20
2014,02,28,14,22,519.80
2014,02,28,14,23,519.60
2014,02,28,14,24,516.30
2014,02,28,14,25,508.10
2014,02,28,14,26,504.50
2014,02,28,14,27,503.10
2014,02,28,14,28,500.90
2014,02,28,14,29,496.90
2014,02,28,14,30,494.80
2014,02,28,14,31,489.70
2014,02,28,14,32,487.40
2014,02,28,14,33,483.60
2014,02,28,14,34,480.90
2014,02,28,14,35,478.80
2014,02,28,14,36,476.60
2014,02,28,14,37,473.60
2014,02,28,14,38,473.00
2014,02,28,14,39,473.00
2014,02,28,14,40,470.30
2014,02,28,14,41,466.00
2014,02,28,14,42,465.50
2014,02,28,14,43,463.20
2014,02,28,14,44,459.80
2014,02,28,14,45,455.40
2014,02,28,14,46,452.70
2014,02,28,14,47,452.00
2014,02,28,14,48,454.40
2014,02,28,14,49,456.80
2014,02,28,14,50,456.90
2014,02,28,14,51,454.50
2014,02,28,14,52,451.10
2014,02,28,14,53,445.80
2014,02,28,14,54,442.90
2014,02,28,14,55,440.80
2014,02,28,14,56,440.80
2014,02,28,14,57,438.40
2014,02,28,14,58,435.20
2014,02,28,14,59,434.00
2014,02,28,15,00,434.00
2014,02,28,15,01,431.10
2014,02,28,15,02,429.00
2014,02,28,15,03,429.00
2014,02,28,15,04,427.90
2014,02,28,15,05,424.60
2014,02,28,15,06,422.20
2014,02,28,15,07,418.40
2014,02,28,15,08,415.80
2014,02,28,15,09,413.70
2014,02,28,15,10,410.70
2014,02,28,15,11,408.20
2014,02,28,15,12,403.20
2014,02,28,15,13,402.80
2014,02,28,15,14,400.20
2014,02,28,15,15,396.70
2014,02,28,15,16,395.20
2014,02,28,15,17,393.10
2014,02,28,15,18,390.90
2014,02,28,15,19,388.20
2014,02,28,15,20,384.30
2014,02,28,15,21,380.70
2014,02,28,15,22,378.20
2014,02,28,15,23,377.80
2014,02,28,15,24,374.00
2014,02,28,15,25,373.40
2014,02,28,15,26,369.90
2014,02,28,15,27,366.00
2014,02,28,15,28,362.20
2014,02,28,15,29,360.00
2014,02,28,15,30,360.00
2014,02,28,15,31,359.30
2014,02,28,15,32,357.40
2014,02,28,15,33,353.40
2014,02,28,15,34,353.00
2014,02,28,15,35,351.70
2014,02,28,15,36,349.70
2014,02,28,15,37,347.20
2014,02,28,15,38,344.30
2014,02,28,15,39,341.40
2014,02,28,15,40,339.00
2014,02,28,15,41,337.10
2014,02,28,15,42,334.70
2014,02,28,15,43,332.40
2014,02,28,15,44,330.20
2014,02,28,15,45,327.10
2014,02,28,15,46,324.70
2014,02,28,15,47,322.40
2014,02,28,15,48,319.40
2014,02,28,15,49,316.90
2014,02,28,15,50,313.40
2014,02,28,15,51,311.00
2014,02,28,15,52,309.10
2014,02,28,15,53,306.60
2014,02,28,15,54,304.40
2014,02,28,15,55,302.30
2014,02,28,15,56,299.20
2014,02,28,15,57,294.90
2014,02,28,15,58,293.60
2014,02,28,15,59,291.40
2014,02,28,16,00,288.20
2014,02,28,16,01,285.00
2014,02,28,16,02,283.00
2014,02,28,16,03,279.80
2014,02,28,16,04,276.90
2014,02,28,16,05,274.40
2014,02,28,16,06,271.30
2014,02,28,16,07,267.20
2014,02,28,16,08,267.00
2014,02,28,16,09,265.90
2014,02,28,16,10,259.10
2014,02,28,16,11,256.20
2014,02,28,16,12,253.20
2014,02,28,16,13,249.40
2014,02,28,16,14,245.60
2014,02,28,16,15,241.90
2014,02,28,16,16,237.80
2014,02,28,16,17,236.10
2014,02,28,16,18,233.90
2014,02,28,16,19,229.70
2014,02,28,16,20,226.70
2014,02,28,16,21,224.50
2014,02,28,16,22,221.90
2014,02,28,16,23,218.40
2014,02,28,16,24,214.50
2014,02,28,16,25,211.80
2014,02,28,16,26,208.30
2014,02,28,16,27,204.70
2014,02,28,16,28,202.30
2014,02,28,16,29,199.90
2014,02,28,16,30,196.60
2014,02,28,16,31,192.40
2014,02,28,16,32,188.90
2014,02,28,16,33,184.90
2014,02,28,16,34,182.10
2014,02,28,16,35,179.50
2014,02,28,16,36,176.80
2014,02,28,16,37,173.40
2014,02,28,16,38,169.80
2014,02,28,16,39,167.30
2014,02,28,16,40,163.20
2014,02,28,16,41,159.40
2014,02,28,16,42,155.80
2014,02,28,16,43,153.90
2014,02,28,16,44,150.20
2014,02,28,16,45,147.70
2014,02,28,16,46,144.00
2014,02,28,16,47,140.20
2014,02,28,16,48,137.70
2014,02,28,16,49,134.60
2014,02,28,16,50,130.60
2014,02,28,16,51,127.30
2014,02,28,16,52,121.40
2014,02,28,16,53,104.80
2014,02,28,16,54,87.00
2014,02,28,16,55,57.80
2014,02,28,16,56,31.80
2014,02,28,16,57,26.00
2014,02,28,16,58,25.40
2014,02,28,16,59,25.00
2014,02,28,17,00,23.50
2014,02,28,17,01,23.00
2014,02,28,17,02,23.00
2014,02,28,17,03,22.80
2014,02,28,17,04,21.00
2014,02,28,17,05,21.00
2014,02,28,17,06,21.00
2014,02,28,17,07,21.00
2014,02,28,17,08,21.00
2014,02,28,17,09,19.80
2014,02,28,17,10,19.00
2014,02,28,17,11,19.00
2014,02,28,17,12,19.00
2014,02,28,17,13,19.00
2014,02,28,17,14,18.90
2014,02,28,17,15,18.00
2014,02,28,17,16,18.00
2014,02,28,17,17,18.00
2014,02,28,17,18,18.00